Home   Weather   Stara Zagora   Past weeks

Flag for Bulgaria Past Weather in Stara Zagora, Bulgaria — Yesterday and Last 2 Weeks

48 °F

Mostly cloudy.

Feels Like: 45 °F
Forecast: 29 / 51 °F
Wind: 7 mph from Northeast

Location: Gorna Orechovista

Current Time: Oct 27, 2016 at 6:16:30 AM

Latest Report: Oct 27, 2016 at 5:30 AM

Visibility: N/A

Pressure: 30.27 "Hg

Humidity: 82%

Dew Point: 43 °F

Location of Stara ZagoraLocation

Past Weather in Stara Zagora — Graph


Stara Zagora Temperature Yesterday

Maximum temperature yesterday: 57 °F (at 12:00 PM)
Minimum temperature yesterday: 45 °F (at 6:30 AM)
Average temperature yesterday: 52 °F

High & Low Weather Summary for the Past Weeks

High68 °F (Oct 22, 2:00 PM)100% (Oct 12, 5:00 AM)30.54 "Hg (Oct 12, 5:00 AM)
Low30 °F (Oct 18, 5:30 AM)48% (Oct 13, 2:30 PM)29.68 "Hg (Oct 12, 7:30 AM)
Average51 °F86%30.20 "Hg
* Reported Oct 12 5:00 AM — Oct 27 5:00 AM, Stara Zagora, Weather by CustomWeather, © 2016

Note: Actual official high and low records may vary slightly from our data, if they occured in-between our weather recording intervals... More about our weather records


Stara Zagora Weather History for the Previous 24 Hours

Scroll right to see more
Time TempWeatherWind HumidityBarometerVisibility
5:00 AM
Thu, Oct 27
48 °FMostly cloudy.7 mph87%30.24 "HgN/A
4:30 AM48 °FOvercast.8 mph94%30.24 "HgN/A
4:00 AM48 °FMostly cloudy.6 mph100%30.24 "HgN/A
3:30 AM50 °FLow clouds.7 mph100%30.24 "HgN/A
3:00 AM50 °FOvercast.6 mph100%30.24 "HgN/A
2:30 AM50 °FLight rain. Overcast.6 mph100%30.21 "HgN/A
2:00 AM50 °FOvercast.6 mph100%30.21 "HgN/A
1:30 AM50 °FLow clouds.7 mph100%30.21 "HgN/A
1:00 AM52 °FMostly cloudy.8 mph100%30.21 "HgN/A
12:30 AM52 °FSprinkles. Mostly cloudy.9 mph100%30.18 "HgN/A
12:00 AM52 °FMostly cloudy.9 mph100%30.18 "HgN/A
11:30 PM
Wed, Oct 26
52 °FMostly cloudy.9 mph100%30.18 "HgN/A
11:00 PM52 °FMostly cloudy.10 mph100%30.18 "HgN/A
10:30 PM52 °FSprinkles. Mostly cloudy.10 mph100%30.18 "Hg6 mi
10:00 PM52 °FSprinkles. Mostly cloudy.6 mph100%30.15 "Hg3 mi
9:30 PM52 °FDrizzle. Fog.5 mph100%30.15 "Hg4 mi
9:00 PM52 °FDrizzle. Low clouds.5 mph100%30.15 "Hg3 mi
8:30 PM52 °FLight rain. Low clouds.5 mph100%30.12 "Hg4 mi
8:00 PM52 °FLight rain. Low clouds.5 mph100%30.12 "Hg3 mi
7:30 PM52 °FLight rain. Mostly cloudy.5 mph100%30.12 "Hg6 mi
7:00 PM52 °FOvercast.7 mph100%30.09 "HgN/A
6:30 PM54 °FFog.6 mph100%30.09 "Hg4 mi
6:00 PM54 °FSprinkles. Cloudy.6 mph100%30.09 "Hg4 mi
5:30 PM54 °FSprinkles. More clouds than sun.6 mph100%30.09 "Hg5 mi
5:00 PM54 °FOvercast.8 mph100%30.09 "HgN/A
4:30 PM54 °FSprinkles. Overcast.6 mph100%30.09 "Hg6 mi
4:00 PM54 °FSprinkles. Overcast.7 mph94%30.09 "HgN/A
3:30 PM55 °FSprinkles. Overcast.9 mph88%30.09 "HgN/A
3:00 PM55 °FCool.12 mph94%30.07 "HgN/A
2:30 PM57 °FLight rain. Scattered clouds.5 mph82%30.07 "HgN/A
2:00 PM57 °FCool.5 mph82%30.07 "HgN/A
1:30 PM57 °FCool.9 mph82%30.04 "HgN/A
1:00 PM55 °FRain showers. Passing clouds.8 mph94%30.07 "HgN/A
12:30 PM57 °FSprinkles. Cloudy.6 mph77%30.12 "HgN/A
12:00 PM57 °FSprinkles. Scattered clouds.9 mph72%30.12 "HgN/A
11:30 AM55 °FPassing clouds.6 mph77%30.15 "HgN/A
11:00 AM54 °FPartly sunny.6 mph77%30.18 "HgN/A
10:30 AM52 °FCool.6 mph82%30.18 "HgN/A
10:00 AM50 °FCool.5 mph88%30.18 "HgN/A
9:30 AM50 °FCool.6 mph88%30.18 "HgN/A
9:00 AM50 °FCool.3 mph88%30.18 "HgN/A
8:30 AM46 °FCool.2 mph100%30.18 "HgN/A
8:00 AM46 °FCool.2 mph100%30.18 "HgN/A
7:30 AM46 °FCool.3 mph100%30.18 "HgN/A
7:00 AM46 °FSleet. Overcast.2 mph93%30.18 "HgN/A
6:30 AM45 °FPassing clouds.6 mph100%30.21 "HgN/A
6:00 AM46 °FPassing clouds.6 mph93%30.21 "HgN/A
Weather by CustomWeather, © 2016

See weather overviewHow to use our weather pages